Regional Weather Roundup
Issued by NWS

Home | Current Version | Previous Version | Text Only | Print | Product List | Glossary Off
Versions: 1 2 3 4 5 6 7 8 9 10 11 12 13 14 15 16 17 18 19 20 21 22 23 24 25 26 27 28 29 30 31 32 33 34 35 36 37 38 39 40 41 42 43 44 45 46 47 48 49 50

000
ASUS44 KMEG 301910
RWRTN
TENNESSEE HOURLY STATE WEATHER ROUNDUP
NATIONAL WEATHER SERVICE MEMPHIS TN
100 PM CST FRI JAN 30 2015

TNZ002-004-019-021-049-052-054-088>092-302000-
WEST TENNESSEE

CITY           SKY/WX    TMP DP  RH WIND       PRES   REMARKS
MEMPHIS INTL   MOSUNNY   49  23  36 N7        30.46F
NWS MEMPHIS      N/A     46 N/A N/A MISG        N/A
JACKSON        SUNNY     46  23  40 N7        30.46F
DYERSBURG      SUNNY     43  18  36 NE9       30.49F
UNION CITY     SUNNY     39  23  52 VRB5      30.46F
PARIS          SUNNY     39  19  45 VRB6      30.46F WCI  35
LEXINGTON      SUNNY     43  19  39 VRB5      30.44F
SAVANNAH       SUNNY     45  23  42 N5        30.45F
$$

TNZ008-025-027-028-033-062-065-066-302000-
NORTH MIDDLE TENNESSEE

CITY           SKY/WX    TMP DP  RH WIND       PRES   REMARKS
NASHVILLE      MOSUNNY   45  20  36 N8        30.44F
CLARKSVILLE    SUNNY     42  22  44 VRB7      30.45F
SMYRNA         SUNNY     43  20  40 N12       30.45F
COOKEVILLE     MOSUNNY   39  21  48 N8        30.38F WCI  34
CROSSVILLE     MOSUNNY   36  19  50 N12G18    30.34F WCI  28
$$

TNZ061-075-076-078-094-096-097-302000-
SOUTH MIDDLE TENNESSEE

CITY           SKY/WX    TMP DP  RH WIND       PRES   REMARKS
FAYETTEVILLE   SUNNY     41  19  42 MISG      30.39F
TULLAHOMA      SUNNY     41  19  42 N9        30.39F
WINCHESTER     SUNNY     43  21  42 N10       30.39F
MCMINNVILLE    SUNNY     41  21  45 N9        30.39F
COLUMBIA       SUNNY     43  23  45 N8        30.41F
SHELBYVILLE    SUNNY     43  23  45 N12       30.42F
$$

TNZ017-018-042-046-047-302000-
NORTHEAST TENNESSEE

CITY           SKY/WX    TMP DP  RH WIND       PRES   REMARKS
TRI CITIES     PTSUNNY   39  18  42 W17G26    30.28S WCI  30
ELIZABETHTON   CLOUDY    36  16  44 NW15G23   30.26S WCI  26
$$

TNZ012-013-036-069-073-074-302000-
CENTRAL EAST TENNESSEE

CITY           SKY/WX    TMP DP  RH WIND       PRES   REMARKS
KNOXVILLE      PTSUNNY   41  20  43 NW9G18    30.36F
OAK RIDGE      PTSUNNY   42  20  41 N7G17     30.38F
GATLINBURG     CLOUDY    39  19  45 NW13      30.35F WCI  32
MORRISTOWN     PTCLDY    39  19  45 NW15      30.33F WCI  31
$$

TNZ083-085-099-302000-
SOUTHEAST TENNESSEE

CITY           SKY/WX    TMP DP  RH WIND       PRES   REMARKS
CHATTANOOGA    MOSUNNY   48  20  32 N15       30.36F
$$

SKY/WX REPORTED AS FAIR MEANS FEW OR NO CLOUDS BELOW
12 THOUSAND FEET.



USA.gov is the U.S. government's official web portal to all federal, state and local government web resources and services.